Year,Month,Day,Hour,Minute,Value (Times are PST for temperature in C)
2011,04,29,00,00,3.50
2011,04,29,00,01,3.50
2011,04,29,00,02,3.50
2011,04,29,00,03,3.50
2011,04,29,00,04,3.50
2011,04,29,00,05,3.40
2011,04,29,00,06,3.40
2011,04,29,00,07,3.40
2011,04,29,00,08,3.40
2011,04,29,00,09,3.50
2011,04,29,00,10,3.50
2011,04,29,00,11,3.60
2011,04,29,00,12,3.60
2011,04,29,00,13,3.60
2011,04,29,00,14,3.60
2011,04,29,00,15,3.70
2011,04,29,00,16,3.70
2011,04,29,00,17,3.80
2011,04,29,00,18,3.80
2011,04,29,00,19,3.90
2011,04,29,00,20,4.00
2011,04,29,00,21,4.00
2011,04,29,00,22,4.10
2011,04,29,00,23,4.10
2011,04,29,00,24,4.10
2011,04,29,00,25,4.00
2011,04,29,00,26,4.00
2011,04,29,00,27,3.90
2011,04,29,00,28,3.80
2011,04,29,00,29,3.80
2011,04,29,00,30,3.80
2011,04,29,00,31,3.70
2011,04,29,00,32,3.70
2011,04,29,00,33,3.60
2011,04,29,00,34,3.60
2011,04,29,00,35,3.50
2011,04,29,00,36,3.50
2011,04,29,00,37,3.50
2011,04,29,00,38,3.40
2011,04,29,00,39,3.40
2011,04,29,00,40,3.30
2011,04,29,00,41,3.30
2011,04,29,00,42,3.30
2011,04,29,00,43,3.30
2011,04,29,00,44,3.30
2011,04,29,00,45,3.30
2011,04,29,00,46,3.30
2011,04,29,00,47,3.30
2011,04,29,00,48,3.30
2011,04,29,00,49,3.30
2011,04,29,00,50,3.20
2011,04,29,00,51,3.20
2011,04,29,00,52,3.20
2011,04,29,00,53,3.20
2011,04,29,00,54,3.20
2011,04,29,00,55,3.20
2011,04,29,00,56,3.20
2011,04,29,00,57,3.20
2011,04,29,00,58,3.10
2011,04,29,00,59,3.10
2011,04,29,01,00,3.10
2011,04,29,01,01,3.10
2011,04,29,01,02,3.10
2011,04,29,01,03,3.10
2011,04,29,01,04,3.10
2011,04,29,01,05,3.10
2011,04,29,01,06,3.10
2011,04,29,01,07,3.10
2011,04,29,01,08,3.10
2011,04,29,01,09,3.00
2011,04,29,01,10,2.90
2011,04,29,01,11,2.90
2011,04,29,01,12,2.90
2011,04,29,01,13,2.90
2011,04,29,01,14,2.90
2011,04,29,01,15,2.90
2011,04,29,01,16,2.90
2011,04,29,01,17,2.90
2011,04,29,01,18,2.80
2011,04,29,01,19,2.80
2011,04,29,01,20,2.80
2011,04,29,01,21,2.70
2011,04,29,01,22,2.70
2011,04,29,01,23,2.70
2011,04,29,01,24,2.70
2011,04,29,01,25,2.70
2011,04,29,01,26,2.70
2011,04,29,01,27,2.70
2011,04,29,01,28,2.60
2011,04,29,01,29,2.60
2011,04,29,01,30,2.60
2011,04,29,01,31,2.60
2011,04,29,01,32,2.50
2011,04,29,01,33,2.50
2011,04,29,01,34,2.50
2011,04,29,01,35,2.50
2011,04,29,01,36,2.50
2011,04,29,01,37,2.50
2011,04,29,01,38,2.50
2011,04,29,01,39,2.50
2011,04,29,01,40,2.50
2011,04,29,01,41,2.50
2011,04,29,01,42,2.50
2011,04,29,01,43,2.50
2011,04,29,01,44,2.50
2011,04,29,01,45,2.60
2011,04,29,01,46,2.60
2011,04,29,01,47,2.60
2011,04,29,01,48,2.60
2011,04,29,01,49,2.60
2011,04,29,01,50,2.60
2011,04,29,01,51,2.60
2011,04,29,01,52,2.60
2011,04,29,01,53,2.60
2011,04,29,01,54,2.60
2011,04,29,01,55,2.60
2011,04,29,01,56,2.60
2011,04,29,01,57,2.60
2011,04,29,01,58,2.60
2011,04,29,01,59,2.60
2011,04,29,02,00,2.60
2011,04,29,02,01,2.60
2011,04,29,02,02,2.60
2011,04,29,02,03,2.60
2011,04,29,02,04,2.60
2011,04,29,02,05,2.60
2011,04,29,02,06,2.60
2011,04,29,02,07,2.60
2011,04,29,02,08,2.60
2011,04,29,02,09,2.60
2011,04,29,02,10,2.60
2011,04,29,02,11,2.60
2011,04,29,02,12,2.60
2011,04,29,02,13,2.70
2011,04,29,02,14,2.70
2011,04,29,02,15,2.70
2011,04,29,02,16,2.70
2011,04,29,02,17,2.70
2011,04,29,02,18,2.70
2011,04,29,02,19,2.70
2011,04,29,02,20,2.70
2011,04,29,02,21,2.80
2011,04,29,02,22,2.80
2011,04,29,02,23,2.80
2011,04,29,02,24,2.80
2011,04,29,02,25,2.80
2011,04,29,02,26,2.80
2011,04,29,02,27,2.80
2011,04,29,02,28,2.90
2011,04,29,02,29,2.90
2011,04,29,02,30,2.90
2011,04,29,02,31,2.90
2011,04,29,02,32,2.90
2011,04,29,02,33,2.90
2011,04,29,02,34,3.00
2011,04,29,02,35,3.10
2011,04,29,02,36,3.10
2011,04,29,02,37,3.10
2011,04,29,02,38,3.10
2011,04,29,02,39,3.10
2011,04,29,02,40,3.10
2011,04,29,02,41,3.10
2011,04,29,02,42,3.10
2011,04,29,02,43,3.10
2011,04,29,02,44,3.10
2011,04,29,02,45,3.10
2011,04,29,02,46,3.20
2011,04,29,02,47,3.20
2011,04,29,02,48,3.20
2011,04,29,02,49,3.20
2011,04,29,02,50,3.30
2011,04,29,02,51,3.30
2011,04,29,02,52,3.30
2011,04,29,02,53,3.30
2011,04,29,02,54,3.30
2011,04,29,02,55,3.30
2011,04,29,02,56,3.30
2011,04,29,02,57,3.30
2011,04,29,02,58,3.30
2011,04,29,02,59,3.30
2011,04,29,03,00,3.40
2011,04,29,03,01,3.40
2011,04,29,03,02,3.40
2011,04,29,03,03,3.40
2011,04,29,03,04,3.50
2011,04,29,03,05,3.50
2011,04,29,03,06,3.50
2011,04,29,03,07,3.50
2011,04,29,03,08,3.50
2011,04,29,03,09,3.50
2011,04,29,03,10,3.50
2011,04,29,03,11,3.50
2011,04,29,03,12,3.50
2011,04,29,03,13,3.50
2011,04,29,03,14,3.50
2011,04,29,03,15,3.50
2011,04,29,03,16,3.50
2011,04,29,03,17,3.60
2011,04,29,03,18,3.50
2011,04,29,03,19,3.50
2011,04,29,03,20,3.50
2011,04,29,03,21,3.50
2011,04,29,03,22,3.50
2011,04,29,03,23,3.50
2011,04,29,03,24,3.50
2011,04,29,03,25,3.50
2011,04,29,03,26,3.50
2011,04,29,03,27,3.50
2011,04,29,03,28,3.60
2011,04,29,03,29,3.60
2011,04,29,03,30,3.60
2011,04,29,03,31,3.60
2011,04,29,03,32,3.60
2011,04,29,03,33,3.60
2011,04,29,03,34,3.60
2011,04,29,03,35,3.60
2011,04,29,03,36,3.60
2011,04,29,03,37,3.60
2011,04,29,03,38,3.60
2011,04,29,03,39,3.60
2011,04,29,03,40,3.60
2011,04,29,03,41,3.60
2011,04,29,03,42,3.60
2011,04,29,03,43,3.60
2011,04,29,03,44,3.60
2011,04,29,03,45,3.60
2011,04,29,03,46,3.60
2011,04,29,03,47,3.60
2011,04,29,03,48,3.70
2011,04,29,03,49,3.70
2011,04,29,03,50,3.70
2011,04,29,03,51,3.70
2011,04,29,03,52,3.70
2011,04,29,03,53,3.70
2011,04,29,03,54,3.70
2011,04,29,03,55,3.70
2011,04,29,03,56,3.70
2011,04,29,03,57,3.70
2011,04,29,03,58,3.70
2011,04,29,03,59,3.70
2011,04,29,04,00,3.60
2011,04,29,04,01,3.60
2011,04,29,04,02,3.60
2011,04,29,04,03,3.60
2011,04,29,04,04,3.60
2011,04,29,04,05,3.60
2011,04,29,04,06,3.60
2011,04,29,04,07,3.60
2011,04,29,04,08,3.60
2011,04,29,04,09,3.60
2011,04,29,04,10,3.60
2011,04,29,04,11,3.50
2011,04,29,04,12,3.50
2011,04,29,04,13,3.50
2011,04,29,04,14,3.50
2011,04,29,04,15,3.50
2011,04,29,04,16,3.50
2011,04,29,04,17,3.50
2011,04,29,04,18,3.50
2011,04,29,04,19,3.40
2011,04,29,04,20,3.40
2011,04,29,04,21,3.40
2011,04,29,04,22,3.40
2011,04,29,04,23,3.40
2011,04,29,04,24,3.40
2011,04,29,04,25,3.40
2011,04,29,04,26,3.40
2011,04,29,04,27,3.30
2011,04,29,04,28,3.30
2011,04,29,04,29,3.30
2011,04,29,04,30,3.30
2011,04,29,04,31,3.30
2011,04,29,04,32,3.30
2011,04,29,04,33,3.30
2011,04,29,04,34,3.30
2011,04,29,04,35,3.30
2011,04,29,04,36,3.30
2011,04,29,04,37,3.30
2011,04,29,04,38,3.30
2011,04,29,04,39,3.30
2011,04,29,04,40,3.30
2011,04,29,04,41,3.30
2011,04,29,04,42,3.30
2011,04,29,04,43,3.30
2011,04,29,04,44,3.30
2011,04,29,04,45,3.30
2011,04,29,04,46,3.30
2011,04,29,04,47,3.30
2011,04,29,04,48,3.30
2011,04,29,04,49,3.30
2011,04,29,04,50,3.30
2011,04,29,04,51,3.30
2011,04,29,04,52,3.30
2011,04,29,04,53,3.30
2011,04,29,04,54,3.30
2011,04,29,04,55,3.30
2011,04,29,04,56,3.30
2011,04,29,04,57,3.30
2011,04,29,04,58,3.30
2011,04,29,04,59,3.30
2011,04,29,05,00,3.30
2011,04,29,05,01,3.30
2011,04,29,05,02,3.30
2011,04,29,05,03,3.30
2011,04,29,05,04,3.30
2011,04,29,05,05,3.30
2011,04,29,05,06,3.30
2011,04,29,05,07,3.30
2011,04,29,05,08,3.30
2011,04,29,05,09,3.30
2011,04,29,05,10,3.30
2011,04,29,05,11,3.40
2011,04,29,05,12,3.30
2011,04,29,05,13,3.40
2011,04,29,05,14,3.30
2011,04,29,05,15,3.30
2011,04,29,05,16,3.30
2011,04,29,05,17,3.30
2011,04,29,05,18,3.40
2011,04,29,05,19,3.40
2011,04,29,05,20,3.40
2011,04,29,05,21,3.40
2011,04,29,05,22,3.40
2011,04,29,05,23,3.40
2011,04,29,05,24,3.40
2011,04,29,05,25,3.40
2011,04,29,05,26,3.40
2011,04,29,05,27,3.40
2011,04,29,05,28,3.40
2011,04,29,05,29,3.50
2011,04,29,05,30,3.50
2011,04,29,05,31,3.50
2011,04,29,05,32,3.50
2011,04,29,05,33,3.50
2011,04,29,05,34,3.50
2011,04,29,05,35,3.50
2011,04,29,05,36,3.50
2011,04,29,05,37,3.50
2011,04,29,05,38,3.50
2011,04,29,05,39,3.50
2011,04,29,05,40,3.50
2011,04,29,05,41,3.50
2011,04,29,05,42,3.50
2011,04,29,05,43,3.50
2011,04,29,05,44,3.50
2011,04,29,05,45,3.50
2011,04,29,05,46,3.50
2011,04,29,05,47,3.50
2011,04,29,05,48,3.40
2011,04,29,05,49,3.40
2011,04,29,05,50,3.40
2011,04,29,05,51,3.40
2011,04,29,05,52,3.40
2011,04,29,05,53,3.30
2011,04,29,05,54,3.30
2011,04,29,05,55,3.30
2011,04,29,05,56,3.30
2011,04,29,05,57,3.30
2011,04,29,05,58,3.30
2011,04,29,05,59,3.30
2011,04,29,06,00,3.30
2011,04,29,06,01,3.30
2011,04,29,06,02,3.30
2011,04,29,06,03,3.30
2011,04,29,06,04,3.30
2011,04,29,06,05,3.20
2011,04,29,06,06,3.20
2011,04,29,06,07,3.20
2011,04,29,06,08,3.20
2011,04,29,06,09,3.20
2011,04,29,06,10,3.20
2011,04,29,06,11,3.10
2011,04,29,06,12,3.10
2011,04,29,06,13,3.10
2011,04,29,06,14,3.10
2011,04,29,06,15,3.10
2011,04,29,06,16,3.10
2011,04,29,06,17,3.10
2011,04,29,06,18,3.10
2011,04,29,06,19,3.10
2011,04,29,06,20,3.10
2011,04,29,06,21,3.10
2011,04,29,06,22,3.10
2011,04,29,06,23,3.10
2011,04,29,06,24,3.10
2011,04,29,06,25,3.10
2011,04,29,06,26,3.10
2011,04,29,06,27,3.10
2011,04,29,06,28,3.00
2011,04,29,06,29,2.90
2011,04,29,06,30,2.90
2011,04,29,06,31,2.90
2011,04,29,06,32,2.90
2011,04,29,06,33,2.90
2011,04,29,06,34,2.90
2011,04,29,06,35,2.90
2011,04,29,06,36,2.90
2011,04,29,06,37,2.80
2011,04,29,06,38,2.80
2011,04,29,06,39,2.80
2011,04,29,06,40,2.80
2011,04,29,06,41,2.90
2011,04,29,06,42,2.90
2011,04,29,06,43,2.90
2011,04,29,06,44,3.10
2011,04,29,06,45,3.10
2011,04,29,06,46,3.20
2011,04,29,06,47,3.20
2011,04,29,06,48,3.20
2011,04,29,06,49,3.30
2011,04,29,06,50,3.30
2011,04,29,06,51,3.30
2011,04,29,06,52,3.30
2011,04,29,06,53,3.30
2011,04,29,06,54,3.30
2011,04,29,06,55,3.30
2011,04,29,06,56,3.30
2011,04,29,06,57,3.30
2011,04,29,06,58,3.30
2011,04,29,06,59,3.30
2011,04,29,07,00,3.30
2011,04,29,07,01,3.30
2011,04,29,07,02,3.30
2011,04,29,07,03,3.30
2011,04,29,07,04,3.30
2011,04,29,07,05,3.30
2011,04,29,07,06,3.30
2011,04,29,07,07,3.30
2011,04,29,07,08,3.30
2011,04,29,07,09,3.30
2011,04,29,07,10,3.30
2011,04,29,07,11,3.30
2011,04,29,07,12,3.30
2011,04,29,07,13,3.30
2011,04,29,07,14,3.30
2011,04,29,07,15,3.30
2011,04,29,07,16,3.30
2011,04,29,07,17,3.30
2011,04,29,07,18,3.30
2011,04,29,07,19,3.30
2011,04,29,07,20,3.30
2011,04,29,07,21,3.30
2011,04,29,07,22,3.30
2011,04,29,07,23,3.30
2011,04,29,07,24,3.40
2011,04,29,07,25,3.40
2011,04,29,07,26,3.40
2011,04,29,07,27,3.50
2011,04,29,07,28,3.50
2011,04,29,07,29,3.60
2011,04,29,07,30,3.70
2011,04,29,07,31,3.80
2011,04,29,07,32,3.80
2011,04,29,07,33,4.00
2011,04,29,07,34,4.10
2011,04,29,07,35,4.30
2011,04,29,07,36,4.40
2011,04,29,07,37,4.50
2011,04,29,07,38,4.60
2011,04,29,07,39,4.80
2011,04,29,07,40,4.90
2011,04,29,07,41,5.10
2011,04,29,07,42,5.10
2011,04,29,07,43,5.30
2011,04,29,07,44,5.30
2011,04,29,07,45,5.50
2011,04,29,07,46,5.60
2011,04,29,07,47,5.60
2011,04,29,07,48,5.70
2011,04,29,07,49,5.70
2011,04,29,07,50,5.70
2011,04,29,07,51,5.80
2011,04,29,07,52,5.90
2011,04,29,07,53,5.90
2011,04,29,07,54,5.90
2011,04,29,07,55,6.00
2011,04,29,07,56,6.00
2011,04,29,07,57,6.10
2011,04,29,07,58,6.10
2011,04,29,07,59,6.20
2011,04,29,08,00,6.30
2011,04,29,08,01,6.40
2011,04,29,08,02,6.60
2011,04,29,08,03,6.70
2011,04,29,08,04,6.90
2011,04,29,08,05,7.00
2011,04,29,08,06,7.10
2011,04,29,08,07,7.20
2011,04,29,08,08,7.20
2011,04,29,08,09,7.30
2011,04,29,08,10,7.30
2011,04,29,08,11,7.40
2011,04,29,08,12,7.50
2011,04,29,08,13,7.60
2011,04,29,08,14,7.70
2011,04,29,08,15,7.80
2011,04,29,08,16,7.80
2011,04,29,08,17,7.80
2011,04,29,08,18,7.80
2011,04,29,08,19,7.80
2011,04,29,08,20,7.80
2011,04,29,08,21,7.80
2011,04,29,08,22,7.80
2011,04,29,08,23,7.80
2011,04,29,08,24,7.80
2011,04,29,08,25,7.80
2011,04,29,08,26,7.90
2011,04,29,08,27,8.00
2011,04,29,08,28,8.00
2011,04,29,08,29,8.10
2011,04,29,08,30,8.20
2011,04,29,08,31,8.30
2011,04,29,08,32,8.30
2011,04,29,08,33,8.30
2011,04,29,08,34,8.40
2011,04,29,08,35,8.40
2011,04,29,08,36,8.40
2011,04,29,08,37,8.50
2011,04,29,08,38,8.50
2011,04,29,08,39,8.70
2011,04,29,08,40,8.80
2011,04,29,08,41,8.80
2011,04,29,08,42,8.90
2011,04,29,08,43,8.90
2011,04,29,08,44,9.00
2011,04,29,08,45,9.10
2011,04,29,08,46,9.20
2011,04,29,08,47,9.10
2011,04,29,08,48,9.00
2011,04,29,08,49,8.90
2011,04,29,08,50,8.90
2011,04,29,08,51,8.90
2011,04,29,08,52,8.90
2011,04,29,08,53,9.00
2011,04,29,08,54,9.00
2011,04,29,08,55,9.10
2011,04,29,08,56,9.20
2011,04,29,08,57,9.20
2011,04,29,08,58,9.30
2011,04,29,08,59,9.40
2011,04,29,09,00,9.50
2011,04,29,09,01,9.50
2011,04,29,09,02,9.50
2011,04,29,09,03,9.40
2011,04,29,09,04,9.40
2011,04,29,09,05,9.50
2011,04,29,09,06,9.50
2011,04,29,09,07,9.60
2011,04,29,09,08,9.70
2011,04,29,09,09,9.70
2011,04,29,09,10,9.70
2011,04,29,09,11,9.70
2011,04,29,09,12,9.80
2011,04,29,09,13,9.90
2011,04,29,09,14,10.00
2011,04,29,09,15,10.10
2011,04,29,09,16,10.20
2011,04,29,09,17,10.30
2011,04,29,09,18,10.30
2011,04,29,09,19,10.40
2011,04,29,09,20,10.40
2011,04,29,09,21,10.40
2011,04,29,09,22,10.30
2011,04,29,09,23,10.40
2011,04,29,09,24,10.40
2011,04,29,09,25,10.50
2011,04,29,09,26,10.60
2011,04,29,09,27,10.60
2011,04,29,09,28,10.70
2011,04,29,09,29,10.80
2011,04,29,09,30,10.90
2011,04,29,09,31,10.90
2011,04,29,09,32,10.90
2011,04,29,09,33,10.90
2011,04,29,09,34,10.90
2011,04,29,09,35,10.90
2011,04,29,09,36,10.80
2011,04,29,09,37,10.80
2011,04,29,09,38,10.70
2011,04,29,09,39,10.80
2011,04,29,09,40,10.80
2011,04,29,09,41,10.90
2011,04,29,09,42,10.80
2011,04,29,09,43,10.80
2011,04,29,09,44,10.80
2011,04,29,09,45,10.90
2011,04,29,09,46,10.90
2011,04,29,09,47,11.00
2011,04,29,09,48,11.10
2011,04,29,09,49,11.20
2011,04,29,09,50,11.10
2011,04,29,09,51,11.10
2011,04,29,09,52,11.20
2011,04,29,09,53,11.20
2011,04,29,09,54,11.10
2011,04,29,09,55,11.10
2011,04,29,09,56,10.90
2011,04,29,09,57,10.90
2011,04,29,09,58,10.90
2011,04,29,09,59,10.80
2011,04,29,10,00,10.80
2011,04,29,10,01,10.90
2011,04,29,10,02,10.90
2011,04,29,10,03,11.00
2011,04,29,10,04,11.10
2011,04,29,10,05,11.10
2011,04,29,10,06,11.10
2011,04,29,10,07,11.00
2011,04,29,10,08,10.90
2011,04,29,10,09,10.90
2011,04,29,10,10,10.90
2011,04,29,10,11,10.90
2011,04,29,10,12,10.90
2011,04,29,10,13,11.00
2011,04,29,10,14,11.10
2011,04,29,10,15,11.10
2011,04,29,10,16,11.20
2011,04,29,10,17,11.20
2011,04,29,10,18,11.20
2011,04,29,10,19,11.20
2011,04,29,10,20,11.30
2011,04,29,10,21,11.30
2011,04,29,10,22,11.40
2011,04,29,10,23,11.40
2011,04,29,10,24,11.40
2011,04,29,10,25,11.50
2011,04,29,10,26,11.60
2011,04,29,10,27,11.70
2011,04,29,10,28,11.70
2011,04,29,10,29,11.70
2011,04,29,10,30,11.80
2011,04,29,10,31,11.70
2011,04,29,10,32,11.60
2011,04,29,10,33,11.50
2011,04,29,10,34,11.30
2011,04,29,10,35,11.20
2011,04,29,10,36,11.20
2011,04,29,10,37,11.20
2011,04,29,10,38,11.30
2011,04,29,10,39,11.40
2011,04,29,10,40,11.40
2011,04,29,10,41,11.40
2011,04,29,10,42,11.40
2011,04,29,10,43,11.50
2011,04,29,10,44,11.60
2011,04,29,10,45,11.60
2011,04,29,10,46,11.60
2011,04,29,10,47,11.60
2011,04,29,10,48,11.60
2011,04,29,10,49,11.70
2011,04,29,10,50,11.90
2011,04,29,10,51,12.00
2011,04,29,10,52,12.00
2011,04,29,10,53,12.10
2011,04,29,10,54,12.10
2011,04,29,10,55,12.20
2011,04,29,10,56,12.30
2011,04,29,10,57,12.30
2011,04,29,10,58,12.40
2011,04,29,10,59,12.50
2011,04,29,11,00,12.60
2011,04,29,11,01,12.60
2011,04,29,11,02,12.60
2011,04,29,11,03,12.50
2011,04,29,11,04,12.40
2011,04,29,11,05,12.30
2011,04,29,11,06,12.20
2011,04,29,11,07,12.20
2011,04,29,11,08,12.20
2011,04,29,11,09,12.10
2011,04,29,11,10,12.10
2011,04,29,11,11,12.00
2011,04,29,11,12,11.90
2011,04,29,11,13,11.80
2011,04,29,11,14,11.60
2011,04,29,11,15,11.60
2011,04,29,11,16,11.60
2011,04,29,11,17,11.70
2011,04,29,11,18,11.80
2011,04,29,11,19,11.80
2011,04,29,11,20,11.80
2011,04,29,11,21,11.80
2011,04,29,11,22,11.80
2011,04,29,11,23,11.80
2011,04,29,11,24,11.80
2011,04,29,11,25,11.80
2011,04,29,11,26,11.70
2011,04,29,11,27,11.70
2011,04,29,11,28,11.60
2011,04,29,11,29,11.60
2011,04,29,11,30,11.70
2011,04,29,11,31,11.80
2011,04,29,11,32,11.80
2011,04,29,11,33,11.90
2011,04,29,11,34,11.90
2011,04,29,11,35,12.00
2011,04,29,11,36,11.90
2011,04,29,11,37,11.80
2011,04,29,11,38,11.80
2011,04,29,11,39,11.80
2011,04,29,11,40,11.80
2011,04,29,11,41,11.70
2011,04,29,11,42,11.80
2011,04,29,11,43,11.70
2011,04,29,11,44,11.70
2011,04,29,11,45,11.70
2011,04,29,11,46,11.70
2011,04,29,11,47,11.70
2011,04,29,11,48,11.80
2011,04,29,11,49,11.80
2011,04,29,11,50,11.80
2011,04,29,11,51,11.90
2011,04,29,11,52,11.90
2011,04,29,11,53,11.90
2011,04,29,11,54,12.00
2011,04,29,11,55,11.90
2011,04,29,11,56,12.00
2011,04,29,11,57,12.00
2011,04,29,11,58,11.90
2011,04,29,11,59,11.90
2011,04,29,12,00,11.90
2011,04,29,12,01,12.00
2011,04,29,12,02,12.00
2011,04,29,12,03,12.10
2011,04,29,12,04,12.10
2011,04,29,12,05,12.00
2011,04,29,12,06,12.00
2011,04,29,12,07,11.90
2011,04,29,12,08,11.90
2011,04,29,12,09,11.90
2011,04,29,12,10,11.90
2011,04,29,12,11,11.90
2011,04,29,12,12,11.80
2011,04,29,12,13,11.80
2011,04,29,12,14,11.80
2011,04,29,12,15,11.80
2011,04,29,12,16,11.80
2011,04,29,12,17,11.80
2011,04,29,12,18,11.80
2011,04,29,12,19,11.90
2011,04,29,12,20,12.00
2011,04,29,12,21,12.00
2011,04,29,12,22,12.00
2011,04,29,12,23,12.00
2011,04,29,12,24,12.00
2011,04,29,12,25,12.00
2011,04,29,12,26,12.10
2011,04,29,12,27,12.10
2011,04,29,12,28,12.10
2011,04,29,12,29,12.20
2011,04,29,12,30,12.30
2011,04,29,12,31,12.30
2011,04,29,12,32,12.30
2011,04,29,12,33,12.30
2011,04,29,12,34,12.20
2011,04,29,12,35,12.20
2011,04,29,12,36,12.10
2011,04,29,12,37,12.10
2011,04,29,12,38,12.10
2011,04,29,12,39,12.10
2011,04,29,12,40,12.00
2011,04,29,12,41,12.00
2011,04,29,12,42,12.10
2011,04,29,12,43,12.10
2011,04,29,12,44,12.10
2011,04,29,12,45,12.20
2011,04,29,12,46,12.20
2011,04,29,12,47,12.30
2011,04,29,12,48,12.30
2011,04,29,12,49,12.30
2011,04,29,12,50,12.20
2011,04,29,12,51,12.20
2011,04,29,12,52,12.10
2011,04,29,12,53,12.10
2011,04,29,12,54,12.00
2011,04,29,12,55,12.00
2011,04,29,12,56,11.90
2011,04,29,12,57,11.90
2011,04,29,12,58,11.90
2011,04,29,12,59,11.90
2011,04,29,13,00,11.90
2011,04,29,13,01,11.90
2011,04,29,13,02,11.90
2011,04,29,13,03,12.00
2011,04,29,13,04,12.10
2011,04,29,13,05,12.10
2011,04,29,13,06,12.20
2011,04,29,13,07,12.20
2011,04,29,13,08,12.20
2011,04,29,13,09,12.20
2011,04,29,13,10,12.20
2011,04,29,13,11,12.20
2011,04,29,13,12,12.20
2011,04,29,13,13,12.20
2011,04,29,13,14,12.20
2011,04,29,13,15,12.10
2011,04,29,13,16,12.10
2011,04,29,13,17,12.10
2011,04,29,13,18,12.00
2011,04,29,13,19,12.00
2011,04,29,13,20,11.90
2011,04,29,13,21,12.00
2011,04,29,13,22,12.00
2011,04,29,13,23,11.90
2011,04,29,13,24,11.90
2011,04,29,13,25,11.90
2011,04,29,13,26,12.00
2011,04,29,13,27,12.00
2011,04,29,13,28,12.00
2011,04,29,13,29,12.00
2011,04,29,13,30,12.00
2011,04,29,13,31,12.00
2011,04,29,13,32,12.00
2011,04,29,13,33,12.00
2011,04,29,13,34,12.10
2011,04,29,13,35,12.10
2011,04,29,13,36,12.10
2011,04,29,13,37,12.20
2011,04,29,13,38,12.20
2011,04,29,13,39,12.30
2011,04,29,13,40,12.30
2011,04,29,13,41,12.30
2011,04,29,13,42,12.30
2011,04,29,13,43,12.30
2011,04,29,13,44,12.40
2011,04,29,13,45,12.40
2011,04,29,13,46,12.40
2011,04,29,13,47,12.40
2011,04,29,13,48,12.40
2011,04,29,13,49,12.40
2011,04,29,13,50,12.30
2011,04,29,13,51,12.30
2011,04,29,13,52,12.30
2011,04,29,13,53,12.30
2011,04,29,13,54,12.30
2011,04,29,13,55,12.30
2011,04,29,13,56,12.40
2011,04,29,13,57,12.40
2011,04,29,13,58,12.30
2011,04,29,13,59,12.30
2011,04,29,14,00,12.40
2011,04,29,14,01,12.40
2011,04,29,14,02,12.40
2011,04,29,14,03,12.50
2011,04,29,14,04,12.50
2011,04,29,14,05,12.50
2011,04,29,14,06,12.50
2011,04,29,14,07,12.50
2011,04,29,14,08,12.50
2011,04,29,14,09,12.50
2011,04,29,14,10,12.50
2011,04,29,14,11,12.60
2011,04,29,14,12,12.60
2011,04,29,14,13,12.50
2011,04,29,14,14,12.50
2011,04,29,14,15,12.50
2011,04,29,14,16,12.50
2011,04,29,14,17,12.50
2011,04,29,14,18,12.50
2011,04,29,14,19,12.50
2011,04,29,14,20,12.50
2011,04,29,14,21,12.50
2011,04,29,14,22,12.50
2011,04,29,14,23,12.50
2011,04,29,14,24,12.50
2011,04,29,14,25,12.50
2011,04,29,14,26,12.60
2011,04,29,14,27,12.60
2011,04,29,14,28,12.70
2011,04,29,14,29,12.70
2011,04,29,14,30,12.80
2011,04,29,14,31,12.80
2011,04,29,14,32,12.80
2011,04,29,14,33,12.70
2011,04,29,14,34,12.80
2011,04,29,14,35,12.80
2011,04,29,14,36,12.80
2011,04,29,14,37,12.80
2011,04,29,14,38,12.80
2011,04,29,14,39,12.80
2011,04,29,14,40,12.90
2011,04,29,14,41,12.90
2011,04,29,14,42,13.00
2011,04,29,14,43,13.00
2011,04,29,14,44,13.10
2011,04,29,14,45,13.20
2011,04,29,14,46,13.20
2011,04,29,14,47,13.20
2011,04,29,14,48,13.10
2011,04,29,14,49,13.10
2011,04,29,14,50,13.10
2011,04,29,14,51,13.10
2011,04,29,14,52,13.00
2011,04,29,14,53,13.00
2011,04,29,14,54,13.00
2011,04,29,14,55,13.00
2011,04,29,14,56,13.00
2011,04,29,14,57,13.00
2011,04,29,14,58,13.00
2011,04,29,14,59,12.90
2011,04,29,15,00,12.80
2011,04,29,15,01,12.70
2011,04,29,15,02,12.50
2011,04,29,15,03,12.50
2011,04,29,15,04,12.40
2011,04,29,15,05,12.30
2011,04,29,15,06,12.30
2011,04,29,15,07,12.30
2011,04,29,15,08,12.20
2011,04,29,15,09,12.10
2011,04,29,15,10,12.10
2011,04,29,15,11,12.10
2011,04,29,15,12,12.00
2011,04,29,15,13,12.00
2011,04,29,15,14,12.00
2011,04,29,15,15,12.00
2011,04,29,15,16,12.00
2011,04,29,15,17,12.00
2011,04,29,15,18,12.10
2011,04,29,15,19,12.10
2011,04,29,15,20,12.20
2011,04,29,15,21,12.30
2011,04,29,15,22,12.30
2011,04,29,15,23,12.30
2011,04,29,15,24,12.40
2011,04,29,15,25,12.50
2011,04,29,15,26,12.50
2011,04,29,15,27,12.60
2011,04,29,15,28,12.70
2011,04,29,15,29,12.70
2011,04,29,15,30,12.60
2011,04,29,15,31,12.60
2011,04,29,15,32,12.60
2011,04,29,15,33,12.50
2011,04,29,15,34,12.50
2011,04,29,15,35,12.50
2011,04,29,15,36,12.50
2011,04,29,15,37,12.50
2011,04,29,15,38,12.50
2011,04,29,15,39,12.50
2011,04,29,15,40,12.50
2011,04,29,15,41,12.50
2011,04,29,15,42,12.60
2011,04,29,15,43,12.70
2011,04,29,15,44,12.80
2011,04,29,15,45,12.80
2011,04,29,15,46,12.80
2011,04,29,15,47,12.80
2011,04,29,15,48,12.80
2011,04,29,15,49,12.80
2011,04,29,15,50,12.80
2011,04,29,15,51,12.80
2011,04,29,15,52,12.80
2011,04,29,15,53,12.80
2011,04,29,15,54,12.70
2011,04,29,15,55,12.70
2011,04,29,15,56,12.70
2011,04,29,15,57,12.80
2011,04,29,15,58,12.80
2011,04,29,15,59,12.80
2011,04,29,16,00,12.80
2011,04,29,16,01,12.90
2011,04,29,16,02,12.90
2011,04,29,16,03,12.90
2011,04,29,16,04,12.90
2011,04,29,16,05,12.90
2011,04,29,16,06,12.80
2011,04,29,16,07,12.80
2011,04,29,16,08,12.80
2011,04,29,16,09,12.70
2011,04,29,16,10,12.70
2011,04,29,16,11,12.60
2011,04,29,16,12,12.60
2011,04,29,16,13,12.60
2011,04,29,16,14,12.60
2011,04,29,16,15,12.60
2011,04,29,16,16,12.60
2011,04,29,16,17,12.60
2011,04,29,16,18,12.60
2011,04,29,16,19,12.60
2011,04,29,16,20,12.70
2011,04,29,16,21,12.70
2011,04,29,16,22,12.70
2011,04,29,16,23,12.80
2011,04,29,16,24,12.80
2011,04,29,16,25,12.80
2011,04,29,16,26,12.80
2011,04,29,16,27,12.80
2011,04,29,16,28,12.90
2011,04,29,16,29,12.90
2011,04,29,16,30,13.00
2011,04,29,16,31,13.10
2011,04,29,16,32,13.20
2011,04,29,16,33,13.30
2011,04,29,16,34,13.30
2011,04,29,16,35,13.30
2011,04,29,16,36,13.20
2011,04,29,16,37,13.20
2011,04,29,16,38,13.20
2011,04,29,16,39,13.20
2011,04,29,16,40,13.20
2011,04,29,16,41,13.30
2011,04,29,16,42,13.40
2011,04,29,16,43,13.50
2011,04,29,16,44,13.70
2011,04,29,16,45,13.70
2011,04,29,16,46,13.80
2011,04,29,16,47,13.90
2011,04,29,16,48,14.00
2011,04,29,16,49,14.00
2011,04,29,16,50,14.00
2011,04,29,16,51,14.00
2011,04,29,16,52,14.10
2011,04,29,16,53,14.20
2011,04,29,16,54,14.20
2011,04,29,16,55,14.20
2011,04,29,16,56,14.20
2011,04,29,16,57,14.20
2011,04,29,16,58,14.20
2011,04,29,16,59,14.10
2011,04,29,17,00,14.10
2011,04,29,17,01,14.20
2011,04,29,17,02,14.20
2011,04,29,17,03,14.20
2011,04,29,17,04,14.20
2011,04,29,17,05,14.20
2011,04,29,17,06,14.20
2011,04,29,17,07,14.20
2011,04,29,17,08,14.10
2011,04,29,17,09,14.10
2011,04,29,17,10,14.10
2011,04,29,17,11,14.10
2011,04,29,17,12,14.20
2011,04,29,17,13,14.20
2011,04,29,17,14,14.20
2011,04,29,17,15,14.20
2011,04,29,17,16,14.20
2011,04,29,17,17,14.20
2011,04,29,17,18,14.30
2011,04,29,17,19,14.40
2011,04,29,17,20,14.40
2011,04,29,17,21,14.40
2011,04,29,17,22,14.50
2011,04,29,17,23,14.50
2011,04,29,17,24,14.50
2011,04,29,17,25,14.40
2011,04,29,17,26,14.40
2011,04,29,17,27,14.40
2011,04,29,17,28,14.30
2011,04,29,17,29,14.20
2011,04,29,17,30,14.20
2011,04,29,17,31,14.20
2011,04,29,17,32,14.10
2011,04,29,17,33,14.00
2011,04,29,17,34,14.00
2011,04,29,17,35,13.90
2011,04,29,17,36,13.80
2011,04,29,17,37,13.80
2011,04,29,17,38,13.80
2011,04,29,17,39,13.80
2011,04,29,17,40,13.80
2011,04,29,17,41,13.80
2011,04,29,17,42,13.80
2011,04,29,17,43,13.90